Weather observations for the past three days for
Houlton, Houlton International Airport
Imperial (Metric)
Date Time (edt) Wind (mph) Vis. (mi.) Weather Sky Cond. Temperature (ºF) Relative Humidity Wind Chill (°F) Heat Index (°F) Pressure Precipitation (in)
Air Dwpt 6 hour altimeter (in) sea level (mb) 1 hr 3 hr 6 hr
Max. Min.
14 21:53 Calm 10.00 Fair CLR 68 64.9 90% 29.83 1010.0
14 20:53 SW 3 10.00 Fair CLR 71.1 66.9 87% 29.82 1009.7
14 19:53 SW 5 10.00 Fair CLR 77 68 87.1 77 74% 79 29.82 1009.5
14 18:53 SW 5 10.00 Fair CLR 82 66.9 60% 85 29.81 1009.3
14 17:53 W 6 10.00 Fair CLR 84.9 64 50% 86 29.81 1009.2
14 16:53 Vrbl 7 10.00 Fair CLR 86 63 46% 87 29.82 1009.5
14 15:53 W 8 G 18 10.00 Partly Cloudy SCT120 87.1 66.9 51% 90 29.83 1009.8
14 14:53 W 10 G 20 10.00 Partly Cloudy FEW055 SCT070 87.1 66 50% 89 29.85 1010.5
14 13:53 W 8 10.00 A Few Clouds FEW048 86 66 86 70 51% 88 29.86 1010.8
14 12:53 W 13 G 17 10.00 A Few Clouds FEW042 82.9 66 57% 85 29.87 1011.4
14 11:53 SW 8 10.00 Fair CLR 81 66.9 62% 83 29.88 1011.7
14 10:53 SW 6 10.00 Fair CLR 79 66.9 67% 81 29.9 1012.3
14 09:53 SW 6 10.00 Fair CLR 75.9 66 72% 77 29.91 1012.6
14 08:53 Vrbl 3 10.00 Fair CLR 73 64.9 76% 29.92 1012.9
14 07:53 N 5 10.00 Fair CLR 70 64 70 57.9 82% 29.93 1013.3
14 06:53 Calm 10.00 Fair CLR 64.9 63 93% 29.91 1012.8
14 05:53 Calm 2.50 Fog/Mist CLR 60.1 59 96% 29.93 1013.4
14 04:53 Calm 0.50 Fog CLR 60.1 59 96% 29.93 1013.3
14 03:53 Calm 1.00 Fog/Mist VV002 61 59 93% 29.92 1013.2
14 02:53 Calm 7.00 Fair CLR 63 62.1 97% 29.92 1012.9
14 01:53 W 6 10.00 Fair CLR 64.9 64 66 63 97% 29.93 1013.4
14 00:53 Calm 1.25 Fog/Mist BKN004 64 62.1 93% 29.94 1013.7
13 23:53 Calm 10.00 Fair CLR 66 64.9 96% 29.95 1014.2
13 22:53 S 7 0.50 Fog VV002 66 64.9 96% 29.96 1014.5
13 21:53 S 3 10.00 A Few Clouds FEW120 66 64 93% 29.96 1014.4
13 20:53 S 5 10.00 Fair CLR 66 63 90% 29.97 1014.7
13 19:53 Vrbl 3 10.00 Fair CLR 66 63 84.9 66 90% 29.98 1015.0 0.27
13 18:53 SW 3 10.00 A Few Clouds FEW110 66.9 64 91% 29.98 1015.2
13 17:53 S 5 10.00 A Few Clouds FEW031 FEW110 66.9 63 87% 29.98 1015.1 0.03
13 16:53 SW 6 3.00 Thunderstorm Rain Fog/Mist FEW055 BKN080 OVC110 66.9 63 87% 29.95 1014.3 0.24 0.24
13 15:53 S 5 10.00 Thunderstorm in Vicinity FEW080 SCT110 80.1 66.9 64% 82 29.96 1014.4
13 14:53 SE 5 10.00 Fair CLR 84.9 64 50% 86 29.98 1015.1
13 13:53 SW 9 10.00 Partly Cloudy SCT043 82.9 64.9 84 68 55% 85 30 1015.7 0.02
13 12:53 S 5 10.00 A Few Clouds FEW037 82.9 66 57% 85 30.02 1016.5
13 11:53 Vrbl 6 10.00 A Few Clouds FEW110 81 66 61% 83 30.05 1017.3
13 10:53 SW 9 10.00 Mostly Cloudy BKN110 79 66.9 67% 81 30.06 1017.7 0.02
13 09:53 SW 7 10.00 Mostly Cloudy BKN100 73.9 68 82% 30.07 1018.3
13 08:53 S 5 10.00 A Few Clouds FEW100 71.1 66 84% 30.08 1018.4 0.02
13 07:53 S 5 9.00 Light Rain BKN110 69.1 64.9 69.1 61 87% 30.09 1019.0 0.01 0.01
13 06:53 Calm 10.00 A Few Clouds FEW085 68 64.9 90% 30.09 1018.7
13 05:53 S 6 10.00 Fair CLR 66 63 90% 30.08 1018.5
13 04:53 S 5 10.00 Fair CLR 62.1 60.1 93% 30.08 1018.3
13 03:53 S 5 2.50 Fog/Mist CLR 62.1 61 96% 30.07 1018.2
13 02:53 S 5 9.00 Fair CLR 64 63 96% 30.07 1018.3
13 01:53 S 3 9.00 Fair CLR 64 63 75.9 63 96% 30.08 1018.6
13 00:53 Calm 10.00 Fair CLR 64 63 96% 30.1 1019.0
12 23:53 Calm 0.25 Fog VV001 64.9 64 97% 30.1 1019.2
12 22:53 Calm 2.00 Fog/Mist CLR 66.9 64.9 93% 30.09 1018.8
12 21:53 Calm 10.00 Fair CLR 69.1 68 96% 30.08 1018.5
12 20:53 Calm 10.00 Mostly Cloudy FEW040 BKN048 73 70 90% 30.07 1018.2
12 19:53 Calm 10.00 Mostly Cloudy BKN038 BKN047 75.9 73.9 82.9 75.9 94% 75 30.06 1017.8 0.02
12 18:53 NW 3 10.00 Overcast BKN032 OVC041 77 73.9 90% 78 30.06 1017.6 0.02
12 17:53 NW 5 10.00 Overcast FEW031 BKN047 OVC085 80.1 73 79% 84 30.05 1017.3
12 16:53 Calm 9.00 Light Rain FEW028 BKN039 OVC080 81 71.1 72% 85 30.05 1017.3
12 15:53 Calm 10.00 Partly Cloudy SCT055 82 69.1 65% 85 30.06 1017.8
12 14:53 Calm 10.00 Mostly Cloudy BKN036 BKN042 80.1 69.1 69% 83 30.07 1018.1
12 13:53 Vrbl 3 10.00 Overcast FEW018 BKN032 OVC041 77 69.1 78.1 68 77% 79 30.08 1018.4
12 12:53 Calm 10.00 Overcast BKN014 OVC024 73.9 68 82% 30.09 1019.0
12 10:53 SW 3 10.00 Overcast OVC010 72 66.9 84% 30.1 1019.2
12 09:53 Calm 10.00 Overcast OVC010 71.1 66 84% 30.1 1019.3
12 08:53 SE 5 10.00 Overcast BKN008 OVC013 69.1 64.9 87% 30.1 1019.3
12 07:53 SE 3 10.00 Overcast OVC009 68 64 69.1 66.9 87% 30.1 1019.0
12 06:53 Calm 10.00 Overcast BKN017 OVC060 68 64 87% 30.08 1018.5
12 05:53 SE 3 10.00 Overcast OVC009 66.9 64 91% 30.07 1018.1
12 04:53 N 3 10.00 Overcast OVC013 66.9 64.9 93% 30.06 1017.7
12 03:53 Calm 10.00 Overcast OVC003 66.9 64.9 93% 30.04 1017.2
12 02:53 N 5 10.00 Overcast OVC007 66.9 64.9 93% 30.03 1016.7
12 01:53 N 3 9.00 Overcast BKN006 OVC010 66.9 64.9 69.1 66.9 93% 30.02 1016.4 0.01
12 00:53 Calm 7.00 Overcast SCT006 OVC013 66.9 64.9 93% 30 1016.0
11 23:53 Calm 10.00 Overcast OVC012 66.9 64.9 93% 29.99 1015.5
11 22:53 N 7 10.00 Overcast SCT004 OVC009 68 66 93% 29.97 1014.8 0.01
Date Time (edt) Wind (mph) Vis. (mi.) Weather Sky Cond. Air Dwpt Max. Min. Relative Humidity Wind Chill (°F) Heat Index (°F) altimeter (in) sea level (mb) 1 hr 3 hr 6 hr
6 hour
Temperature (ºF) Pressure Precipitation (in)